TimeEDT,TemperatureF,Dew PointF,Humidity,Sea Level PressureIn,VisibilityMPH,Wind Direction,Wind SpeedMPH,Gust SpeedMPH,PrecipitationIn,Events,Conditions,WindDirDegrees,DateUTC
12:53 AM,55.0,51.1,86,30.14,10.0,Calm,Calm,-,N/A,,Clear,0,2013-08-17 04:53:00
1:53 AM,57.0,52.0,83,30.14,10.0,Calm,Calm,-,N/A,,Partly Cloudy,0,2013-08-17 05:53:00
2:53 AM,59.0,54.0,83,30.14,10.0,Calm,Calm,-,N/A,,Mostly Cloudy,0,2013-08-17 06:53:00
3:53 AM,59.0,53.1,81,30.14,10.0,Calm,Calm,-,N/A,,Clear,0,2013-08-17 07:53:00
4:53 AM,61.0,53.1,75,30.14,10.0,West,6.9,-,N/A,,Clear,280,2013-08-17 08:53:00
5:53 AM,64.0,55.0,73,30.14,10.0,West,10.4,-,N/A,,Clear,280,2013-08-17 09:53:00
6:53 AM,64.0,55.0,73,30.15,10.0,West,11.5,-,N/A,,Clear,280,2013-08-17 10:53:00
7:53 AM,64.0,55.0,73,30.16,10.0,West,11.5,-,N/A,,Clear,280,2013-08-17 11:53:00
8:53 AM,68.0,55.0,63,30.17,10.0,West,10.4,-,N/A,,Clear,280,2013-08-17 12:53:00
9:53 AM,71.1,55.0,57,30.18,10.0,West,9.2,-,N/A,,Clear,270,2013-08-17 13:53:00
10:53 AM,73.0,54.0,51,30.19,10.0,West,11.5,-,N/A,,Clear,260,2013-08-17 14:53:00
11:53 AM,75.0,53.1,46,30.19,10.0,West,15.0,-,N/A,,Clear,260,2013-08-17 15:53:00
12:53 PM,75.9,53.1,45,30.18,10.0,West,12.7,23.0,N/A,,Clear,260,2013-08-17 16:53:00
1:53 PM,77.0,51.1,40,30.16,10.0,West,18.4,29.9,N/A,,Clear,270,2013-08-17 17:53:00
2:53 PM,78.1,54.0,43,30.14,10.0,West,15.0,-,N/A,,Clear,270,2013-08-17 18:53:00
3:53 PM,79.0,54.0,42,30.12,10.0,West,13.8,-,N/A,,Clear,270,2013-08-17 19:53:00
4:53 PM,78.1,54.0,43,30.11,10.0,WNW,10.4,-,N/A,,Clear,290,2013-08-17 20:53:00
5:53 PM,77.0,55.0,47,30.10,10.0,WNW,9.2,-,N/A,,Clear,300,2013-08-17 21:53:00
6:53 PM,77.0,55.9,48,30.09,10.0,West,6.9,-,N/A,,Clear,270,2013-08-17 22:53:00
7:53 PM,75.0,55.0,50,30.09,10.0,West,6.9,-,N/A,,Clear,280,2013-08-17 23:53:00
8:53 PM,70.0,57.0,63,30.09,10.0,Calm,Calm,-,N/A,,Clear,0,2013-08-18 00:53:00
9:53 PM,66.9,55.9,68,30.09,10.0,Calm,Calm,-,N/A,,Clear,0,2013-08-18 01:53:00
10:53 PM,71.1,54.0,55,30.09,10.0,WSW,8.1,-,N/A,,Clear,240,2013-08-18 02:53:00
11:53 PM,71.1,53.1,53,30.08,10.0,SW,8.1,-,N/A,,Clear,230,2013-08-18 03:53:00